Weather in Sidorovka

Russia / Altai Krai     52°32′24″N   80°45′09″E
temp.,
°C
wind,
m/s
gust,
m/s
humid.,
%
clouds,
%
prec.,
mm/h
press.,
hPa
HPBL,
m
19 april, mon
mon1901:00+8w5118540 0.1 1007469
04:00+2nw101595100 0.4 1010704
07:00−4nnw8137165 0.4 1016809
10:00−2nnw795376 0.0 10201084
13:00+1nnw664175 0.0 10221563
16:00+1nnw55346 0.0 10221763
19:000nnw553471 0.0 10231783
22:00−3n67435 0.0 1025744
20 april, tue
tue2001:00−4nne56435 0.0 1026920
04:00−5nne56505 0.0 10261035
07:00−6n56446 0.0 10271252
10:00−4nne5539100 0.0 10281664
13:00−2nne553126 0.0 10271754
16:00−1nne56315 0.0 10271712
19:00−1nne45355 0.0 10271516
22:00−3nne23490 0.0 102748
21 april, wed
wed2101:00−3n23530 0.0 102765
04:00−4nw22535 0.0 102670
07:00−4w2354100 0.0 1025140
10:00−1wsw4436100 0.0 1025936
13:00+2w5631100 0.0 10231434
16:00+3w5745100 0.0 10211714
19:00+3wnw356489 0.1 10221004
22:000n388167 0.4 1025514
22 april, thu
thu2201:00−1nw598878 0.4 1026398
04:00−1ne468885 0.1 1028376
07:00−2ne478587 0.1 1032359
10:00+1ne686093 0.0 10351220
13:00+3nne6845100 0.1 10361898
16:00+4nne7740100 0.0 10372142
19:00+4nne784146 0.0 10381834
22:00+1nne611575 0.0 1041501
23 april, fri
fri2301:00−1nne511695 0.0 1041398
04:00−2nne510775 0.0 1041368
07:00−2nne510805 0.0 1041426
10:00+2nne68555 0.0 1041891
13:00+5nne664075 0.0 10401845
16:00+6nne6736100 0.0 10382277
19:00+6nne77455 0.0 10381757
22:00+3nne596389 0.0 1038377